Weather History for Grand Etang, NS

Change the Weather History Date:

Thursday, November 29, 2012

  Actual Average Record
Temperature  
Mean Temperature 33 °F -  
Max Temperature 36 °F - - ()
Min Temperature 30 °F - - ()
Degree Days  
Heating Degree Days 32    
Moisture  
Dew Point 27 °F    
Average Humidity 77    
Maximum Humidity 94    
Minimum Humidity 65    
Precipitation  
Precipitation 0.00 in - - ()
Sea Level Pressure  
Sea Level Pressure 29.86 in    
Wind  
Wind Speed 18 mph ()    
Max Wind Speed 36 mph    
Max Gust Speed 43 mph    
T = Trace of Precipitation, MM = Missing Value Source: Averaged Metar Reports

Daily Weather History Graph

Daily Weather History Graph

Search for Another Location

Airport:

Trip Planner

Search our weather history database for the weather conditions in past years. The results will help you decide how hot, cold, wet, or windy it might be!

Date:

Astronomy

Nov. 29, 2012 Rise Set
Actual Time 7:25 AM AST 4:19 PM AST
Civil Twilight 6:51 AM AST 4:53 PM AST
Nautical Twilight 6:13 AM AST 5:31 PM AST
Astronomical Twilight 5:37 AM AST 6:07 PM AST
Moon 5:17 PM AST (11/29) 8:09 AM AST (11/29)
Length of Visible Light 10h 02m
Length of Day
8h 53m
Full, 99% of the Moon is Illuminated
Nov 29
Full
Dec 6
Last Quarter
Dec 13
New
Dec 20
First Quarter
Dec 28
Full

Hourly Weather History & Observations

Time (AST) Temp. Windchill Dew Point Humidity Pressure Visibility Wind Dir Wind Speed Gust Speed Precip Events Conditions
12:00 AM 31.6 °F 21.6 °F 22.8 °F 70% 29.94 in - ENE 13.8 mph - N/A   Unknown
12:20 AM 31.6 °F 22.6 °F 22.8 °F 70% - - ENE 11.5 mph - N/A   Unknown
12:40 AM 31.3 °F 23.9 °F 23.2 °F 72% - - NE 8.1 mph - N/A   Unknown
1:00 AM 31.5 °F 21.4 °F 23.5 °F 73% 29.93 in - ENE 13.8 mph - N/A   Unknown
1:20 AM 31.5 °F 24.2 °F 23.5 °F 73% - - ENE 8.1 mph - N/A   Unknown
1:40 AM 31.5 °F 25.8 °F 23.9 °F 74% - - NE 5.8 mph - N/A   Unknown
2:00 AM 31.5 °F 23.5 °F 24.3 °F 75% 29.91 in - NE 9.2 mph - N/A   Unknown
2:20 AM 31.5 °F 24.9 °F 24.1 °F 74% - - ENE 6.9 mph - N/A   Unknown
2:40 AM 31.6 °F 25.1 °F 24.4 °F 75% - - NE 6.9 mph - N/A   Unknown
3:00 AM 31.6 °F 23.1 °F 24.6 °F 75% 29.91 in - NE 10.4 mph - N/A   Unknown
3:20 AM 31.6 °F 25.1 °F 25.0 °F 76% - - NE 6.9 mph - N/A   Unknown
3:40 AM 31.8 °F 26.2 °F 25.2 °F 76% - - NE 5.8 mph - N/A   Unknown
4:00 AM 33.3 °F 27.1 °F 27.0 °F 78% 29.89 in - North 6.9 mph 18.4 mph N/A   Unknown
4:20 AM 34.3 °F 23.2 °F 28.8 °F 80% - - NNW 19.6 mph - N/A   Unknown
4:40 AM 34.2 °F 22.3 °F 28.2 °F 79% - - NNW 21.9 mph - N/A   Unknown
5:00 AM 34.3 °F 22.6 °F 28.9 °F 81% 29.88 in - NNW 21.9 mph - N/A   Unknown
5:20 AM 34.7 °F 23.4 °F 28.8 °F 79% - - NNW 20.7 mph - N/A   Unknown
5:40 AM 34.5 °F 23.4 °F 28.4 °F 78% - - NW 19.6 mph 26.5 mph N/A   Unknown
6:00 AM 34.3 °F 22.9 °F 28.0 °F 78% 29.88 in - NW 20.7 mph - N/A   Unknown
6:20 AM 34.5 °F 23.8 °F 28.0 °F 77% - - NW 18.4 mph - N/A   Unknown
6:40 AM 34.5 °F 24.5 °F 28.2 °F 78% - - NNW 16.1 mph - N/A   Unknown
7:00 AM 34.3 °F 23.2 °F 27.7 °F 77% 29.87 in - NW 19.6 mph - N/A   Unknown
7:20 AM 34.2 °F 24.4 °F 27.1 °F 75% - - NNW 15.0 mph - N/A   Unknown
7:40 AM 34.5 °F 24.1 °F 27.9 °F 77% - - NNW 17.3 mph - N/A   Unknown
8:00 AM 34.3 °F 23.9 °F 26.8 °F 74% 29.86 in - NNW 17.3 mph - N/A   Unknown
8:20 AM 34.9 °F 24.9 °F 27.5 °F 74% - - NW 16.1 mph - N/A   Unknown
8:40 AM 34.9 °F 24.6 °F 27.5 °F 74% - - NW 17.3 mph - N/A   Unknown
9:00 AM 35.2 °F 24.4 °F 28.2 °F 76% 29.85 in - NW 19.6 mph 27.6 mph N/A   Unknown
9:20 AM 35.4 °F 25.3 °F 28.2 °F 75% - - NW 17.3 mph - N/A   Unknown
9:40 AM 35.2 °F 24.7 °F 27.1 °F 72% - - NW 18.4 mph - N/A   Unknown
10:00 AM 35.6 °F 24.8 °F 27.3 °F 72% 29.85 in - NW 19.6 mph - N/A   Unknown
10:20 AM 35.8 °F 24.2 °F 26.6 °F 69% - - WNW 23.0 mph 29.9 mph N/A   Unknown
10:40 AM 35.8 °F 23.7 °F 26.4 °F 69% - - NW 25.3 mph - N/A   Unknown
11:00 AM 35.6 °F 23.2 °F 26.1 °F 68% 29.84 in - WNW 26.5 mph - N/A   Unknown
11:20 AM 35.4 °F 22.5 °F 26.2 °F 69% - - WNW 28.8 mph - N/A   Unknown
11:40 AM 35.2 °F 22.7 °F 26.2 °F 70% - - WNW 26.5 mph 32.2 mph N/A   Unknown
12:00 PM 36.1 °F 23.5 °F 25.5 °F 65% 29.82 in - WNW 28.8 mph - N/A   Unknown
12:20 PM 35.8 °F 23.9 °F 25.2 °F 65% - - WNW 24.2 mph 29.9 mph N/A   Unknown
12:40 PM 35.4 °F 23.5 °F 27.5 °F 73% - - WNW 24.2 mph - N/A   Unknown
1:20 PM 34.5 °F 21.8 °F 29.7 °F 82% - - WNW 26.5 mph 33.4 mph N/A   Unknown
1:40 PM 35.4 °F 24.6 °F 29.1 °F 78% - - WNW 19.6 mph 25.3 mph N/A   Unknown
2:00 PM 35.8 °F 22.8 °F 27.7 °F 72% 29.80 in - WNW 29.9 mph - N/A   Unknown
2:20 PM 35.6 °F 23.7 °F 25.3 °F 66% - - West 24.2 mph 33.4 mph N/A   Unknown
2:40 PM 35.8 °F 23.4 °F 26.4 °F 69% - - WNW 26.5 mph 33.4 mph N/A   Unknown
3:00 PM 35.2 °F 21.8 °F 28.6 °F 77% 29.78 in - West 31.1 mph 39.1 mph N/A   Unknown
3:20 PM 34.9 °F 21.5 °F 28.6 °F 78% - - WNW 29.9 mph 35.7 mph N/A   Unknown
3:40 PM 35.1 °F 23.3 °F 29.1 °F 79% - - WNW 23.0 mph 34.5 mph N/A   Unknown
4:00 PM 34.7 °F 20.9 °F 25.9 °F 70% 29.80 in - West 32.2 mph - N/A   Unknown
4:20 PM 34.9 °F 22.2 °F 26.4 °F 71% - - West 26.5 mph 32.2 mph N/A   Unknown
4:40 PM 34.5 °F 21.8 °F 26.4 °F 72% - - West 26.5 mph - N/A   Unknown
5:00 PM 34.7 °F 21.5 °F 26.8 °F 73% 29.81 in - West 28.8 mph 35.7 mph N/A   Unknown
5:20 PM 34.7 °F 22.0 °F 27.9 °F 76% - - West 26.5 mph 33.4 mph N/A   Unknown
5:40 PM 31.3 °F 16.9 °F 29.1 °F 92% - - West 28.8 mph - N/A   Unknown
6:00 PM 33.3 °F 18.9 °F 29.8 °F 87% 29.81 in - WSW 32.2 mph 41.4 mph N/A   Unknown
6:20 PM 32.9 °F 18.9 °F 30.0 °F 89% - - WSW 29.9 mph 38.0 mph N/A   Unknown
6:40 PM 33.4 °F 20.1 °F 30.6 °F 89% - - West 27.6 mph 35.7 mph N/A   Unknown
7:00 PM 33.4 °F 19.1 °F 27.9 °F 80% 29.83 in - West 32.2 mph - N/A   Unknown
7:20 PM 34.3 °F 20.4 °F 27.9 °F 77% - - West 32.2 mph 42.6 mph N/A   Unknown
7:40 PM 31.3 °F 16.4 °F 29.1 °F 92% - - WNW 31.1 mph 38.0 mph N/A   Unknown
8:00 PM 31.6 °F 16.0 °F 29.1 °F 90% 29.84 in - West 35.7 mph - N/A   Unknown
8:20 PM 31.8 °F 17.6 °F 30.4 °F 94% - - West 28.8 mph 42.6 mph N/A   Unknown
8:40 PM 31.5 °F 16.4 °F 28.8 °F 90% - - WNW 32.2 mph 42.6 mph N/A   Unknown
9:00 PM 31.8 °F 16.7 °F 28.8 °F 88% 29.84 in - West 33.4 mph - N/A   Unknown
9:20 PM 33.3 °F 18.5 °F 27.1 °F 78% - - West 34.5 mph 42.6 mph N/A   Unknown
9:40 PM 32.9 °F 18.2 °F 27.7 °F 81% - - West 33.4 mph 41.4 mph N/A   Unknown
10:00 PM 31.6 °F 16.3 °F 27.5 °F 85% 29.87 in - West 34.5 mph 41.4 mph N/A   Unknown
10:20 PM 31.5 °F 16.4 °F 25.9 °F 80% - - West 32.2 mph 40.3 mph N/A   Unknown
10:40 PM 31.1 °F 16.2 °F 25.9 °F 81% - - West 31.1 mph 39.1 mph N/A   Unknown
11:00 PM 30.9 °F 15.3 °F 26.8 °F 85% 29.87 in - West 34.5 mph - N/A   Unknown
11:20 PM 31.3 °F 16.2 °F 26.2 °F 82% - - West 32.2 mph 42.6 mph N/A   Unknown
11:40 PM 30.6 °F 15.0 °F 25.5 °F 82% - - West 33.4 mph 40.3 mph N/A   Unknown